When you browse on this site, cookies collect data to enhance your experience and personalize the content and advertising you see.
Visit our Privacy Policy to learn more. By continuing to use the site, you agree to this use of cookies and data.
  • In Österreich
  • Länderverzeichnis
  • Für 7 Tage
  • Wassertemperatur
  • Wetterkarte
  • News
  • Widgets
  • user-avatar
    Anmelden

    Stündliche Wetter Zorya

    Heute, 12 November, Dienstag

    Zeit Temperatur Niederschläge Wind Luftdruck Luftfeuchtigkeit
    00:00 +4°C° 0 mm 2 m/S 744 mmHg 86%
    01:00 +4°C° 0 mm 2 m/S 745 mmHg 87%
    02:00 +4°C° 0 mm 2 m/S 745 mmHg 87%
    03:00 +3°C° 0 mm 3 m/S 745 mmHg 88%
    04:00 +3°C° 0 mm 3 m/S 744 mmHg 88%
    05:00 +3°C° 0 mm 4 m/S 744 mmHg 88%
    06:00 +3°C° 0 mm 4 m/S 744 mmHg 87%
    07:00 +3°C° 0 mm 4 m/S 744 mmHg 87%
    08:00 +4°C° 0 mm 4 m/S 744 mmHg 86%
    09:00 +5°C° 0 mm 5 m/S 744 mmHg 81%
    10:00 +7°C° 0 mm 5 m/S 744 mmHg 76%
    11:00 +8°C° 0 mm 6 m/S 744 mmHg 71%
    12:00 +9°C° 0 mm 6 m/S 743 mmHg 69%
    13:00 +10°C° 0 mm 6 m/S 743 mmHg 67%
    14:00 +11°C° 0 mm 6 m/S 742 mmHg 64%
    15:00 +10°C° 0 mm 5 m/S 742 mmHg 68%
    16:00 +10°C° 0 mm 5 m/S 741 mmHg 72%
    17:00 +10°C° 0 mm 4 m/S 741 mmHg 75%
    18:00 +9°C° 0 mm 5 m/S 741 mmHg 75%
    19:00 +9°C° 0 mm 6 m/S 741 mmHg 74%
    20:00 +10°C° 0 mm 7 m/S 741 mmHg 73%
    21:00 +10°C° 0 mm 7 m/S 740 mmHg 72%
    22:00 +10°C° 0 mm 7 m/S 740 mmHg 72%
    23:00 +11°C° 0 mm 6 m/S 740 mmHg 71%

    Morgen, 13 November, Mittwoch

    Zeit Temperatur Niederschläge Wind Luftdruck Luftfeuchtigkeit
    00:00 +11°C° 0 mm 7 m/S 740 mmHg 72%
    01:00 +11°C° 0 mm 7 m/S 740 mmHg 73%
    02:00 +11°C° 0 mm 7 m/S 740 mmHg 74%
    03:00 +11°C° 0 mm 7 m/S 740 mmHg 71%
    04:00 +11°C° 0 mm 7 m/S 739 mmHg 68%
    05:00 +11°C° 0 mm 7 m/S 739 mmHg 65%
    06:00 +11°C° 0 mm 7 m/S 739 mmHg 66%
    07:00 +11°C° 0 mm 8 m/S 739 mmHg 68%
    08:00 +11°C° 0 mm 8 m/S 739 mmHg 69%
    09:00 +12°C° 0 mm 9 m/S 739 mmHg 64%
    10:00 +14°C° 0 mm 10 m/S 739 mmHg 58%
    11:00 +17°C° 0 mm 10 m/S 738 mmHg 53%
    12:00 +17°C° 0 mm 10 m/S 738 mmHg 51%
    13:00 +18°C° 0 mm 10 m/S 738 mmHg 48%
    14:00 +18°C° 0 mm 10 m/S 738 mmHg 46%
    15:00 +17°C° 0 mm 10 m/S 738 mmHg 49%
    16:00 +16°C° 0 mm 9 m/S 738 mmHg 51%
    17:00 +16°C° 0 mm 9 m/S 738 mmHg 53%
    18:00 +15°C° 0 mm 9 m/S 738 mmHg 54%
    19:00 +15°C° 0 mm 9 m/S 738 mmHg 54%
    20:00 +15°C° 0 mm 9 m/S 738 mmHg 55%
    21:00 +15°C° 0 mm 9 m/S 738 mmHg 55%
    22:00 +13°C° 0 mm 9 m/S 738 mmHg 55%
    23:00 +13°C° 0 mm 9 m/S 738 mmHg 56%

    übermorgen, 14 November, Donnerstag

    Zeit Temperatur Niederschläge Wind Luftdruck Luftfeuchtigkeit
    00:00 +13°C° 0 mm 9 m/S 738 mmHg 58%
    01:00 +13°C° 0 mm 9 m/S 738 mmHg 60%
    02:00 +12°C° 0 mm 9 m/S 739 mmHg 61%
    03:00 +12°C° 0 mm 8 m/S 739 mmHg 63%
    04:00 +12°C° 0 mm 8 m/S 739 mmHg 65%
    05:00 +11°C° 0 mm 7 m/S 739 mmHg 67%
    06:00 +11°C° 0 mm 7 m/S 739 mmHg 67%
    07:00 +11°C° 0 mm 7 m/S 739 mmHg 67%
    08:00 +10°C° 0 mm 6 m/S 740 mmHg 67%
    09:00 +11°C° 0 mm 6 m/S 740 mmHg 64%
    10:00 +13°C° 0 mm 6 m/S 740 mmHg 61%
    11:00 +13°C° 0 mm 6 m/S 741 mmHg 58%
    12:00 +13°C° 0 mm 6 m/S 741 mmHg 58%
    13:00 +14°C° 0 mm 6 m/S 741 mmHg 58%
    14:00 +14°C° 0 mm 6 m/S 741 mmHg 58%
    15:00 +13°C° 0 mm 5 m/S 741 mmHg 61%
    16:00 +12°C° 0 mm 5 m/S 741 mmHg 64%
    17:00 +11°C° 0 mm 4 m/S 741 mmHg 68%
    18:00 +10°C° 0 mm 4 m/S 741 mmHg 70%
    19:00 +10°C° 0 mm 4 m/S 741 mmHg 72%
    20:00 +8°C° 0 mm 5 m/S 741 mmHg 74%
    21:00 +8°C° 0 mm 4 m/S 741 mmHg 75%
    22:00 +8°C° 0 mm 4 m/S 741 mmHg 77%
    23:00 +7°C° 0 mm 4 m/S 741 mmHg 79%

    15 November, Freitag

    Zeit Temperatur Niederschläge Wind Luftdruck Luftfeuchtigkeit
    00:00 +7°C° 0 mm 4 m/S 741 mmHg 79%
    01:00 +7°C° 0 mm 4 m/S 742 mmHg 79%
    02:00 +7°C° 0 mm 4 m/S 742 mmHg 78%
    03:00 +6°C° 0 mm 4 m/S 742 mmHg 78%
    04:00 +6°C° 0 mm 4 m/S 741 mmHg 79%
    05:00 +5°C° 0 mm 4 m/S 741 mmHg 79%
    06:00 +5°C° 0 mm 4 m/S 742 mmHg 79%
    07:00 +5°C° 0 mm 5 m/S 742 mmHg 80%
    08:00 +5°C° 0 mm 5 m/S 742 mmHg 80%
    09:00 +6°C° 0 mm 5 m/S 742 mmHg 78%
    10:00 +7°C° 0 mm 5 m/S 742 mmHg 75%
    11:00 +7°C° 0 mm 5 m/S 743 mmHg 73%
    12:00 +8°C° 0 mm 5 m/S 743 mmHg 71%
    13:00 +8°C° 0 mm 5 m/S 743 mmHg 70%
    14:00 +10°C° 0 mm 4 m/S 743 mmHg 69%
    15:00 +10°C° 0 mm 4 m/S 743 mmHg 72%
    16:00 +8°C° 0 mm 4 m/S 743 mmHg 75%
    17:00 +7°C° 0 mm 4 m/S 743 mmHg 78%
    18:00 +7°C° 0 mm 4 m/S 743 mmHg 79%
    19:00 +7°C° 0 mm 4 m/S 743 mmHg 80%
    20:00 +7°C° 0 mm 4 m/S 743 mmHg 81%
    21:00 +7°C° 0 mm 4 m/S 743 mmHg 82%
    22:00 +6°C° 0 mm 4 m/S 744 mmHg 83%
    23:00 +7°C° 0 mm 3 m/S 744 mmHg 84%

    16 November, Samstag

    Zeit Temperatur Niederschläge Wind Luftdruck Luftfeuchtigkeit
    00:00 +7°C° 0 mm 3 m/S 744 mmHg 87%
    01:00 +5°C° 0 mm 3 m/S 744 mmHg 90%
    02:00 +5°C° 0 mm 3 m/S 744 mmHg 93%
    03:00 +5°C° 0 mm 3 m/S 744 mmHg 94%
    04:00 +5°C° 0 mm 3 m/S 744 mmHg 95%
    05:00 +5°C° 0 mm 3 m/S 744 mmHg 95%
    06:00 +7°C° 0 mm 3 m/S 744 mmHg 95%
    07:00 +7°C° 0 mm 3 m/S 745 mmHg 95%
    08:00 +7°C° 0 mm 4 m/S 745 mmHg 95%
    09:00 +8°C° 0 mm 4 m/S 745 mmHg 93%
    10:00 +8°C° 0 mm 4 m/S 745 mmHg 91%
    11:00 +10°C° 0 mm 4 m/S 746 mmHg 89%
    12:00 +10°C° 0 mm 4 m/S 746 mmHg 89%
    13:00 +10°C° 0 mm 4 m/S 746 mmHg 88%
    14:00 +10°C° 0 mm 4 m/S 746 mmHg 88%
    15:00 +10°C° 0 mm 4 m/S 746 mmHg 88%
    16:00 +10°C° 0 mm 4 m/S 746 mmHg 89%
    17:00 +10°C° 0 mm 4 m/S 746 mmHg 89%
    18:00 +10°C° 0 mm 4 m/S 746 mmHg 89%
    19:00 +10°C° 0 mm 4 m/S 746 mmHg 88%
    20:00 +10°C° 0 mm 4 m/S 746 mmHg 88%
    21:00 +10°C° 0 mm 4 m/S 747 mmHg 87%
    22:00 +10°C° 0 mm 4 m/S 747 mmHg 86%
    23:00 +10°C° 0 mm 4 m/S 747 mmHg 85%

    17 November, Sonntag

    Zeit Temperatur Niederschläge Wind Luftdruck Luftfeuchtigkeit
    00:00 +10°C° 0 mm 4 m/S 747 mmHg 84%
    01:00 +10°C° 0 mm 4 m/S 747 mmHg 83%
    02:00 +10°C° 0 mm 4 m/S 747 mmHg 82%
    03:00 +10°C° 0 mm 4 m/S 747 mmHg 82%
    04:00 +10°C° 0 mm 4 m/S 746 mmHg 82%
    05:00 +10°C° 0 mm 4 m/S 746 mmHg 83%
    06:00 +8°C° 0 mm 4 m/S 746 mmHg 82%
    07:00 +8°C° 0 mm 5 m/S 746 mmHg 81%
    08:00 +7°C° 0 mm 5 m/S 746 mmHg 81%
    09:00 +8°C° 0 mm 5 m/S 747 mmHg 77%
    10:00 +8°C° 0 mm 5 m/S 747 mmHg 74%
    11:00 +9°C° 0 mm 6 m/S 747 mmHg 70%
    12:00 +9°C° 0 mm 6 m/S 746 mmHg 67%
    13:00 +10°C° 0 mm 6 m/S 746 mmHg 64%
    14:00 +10°C° 0 mm 6 m/S 746 mmHg 61%
    15:00 +9°C° 0 mm 5 m/S 746 mmHg 63%
    16:00 +8°C° 0 mm 5 m/S 745 mmHg 65%
    17:00 +7°C° 0 mm 5 m/S 745 mmHg 67%
    18:00 +7°C° 0 mm 5 m/S 745 mmHg 70%
    19:00 +5°C° 0 mm 6 m/S 745 mmHg 72%
    20:00 +5°C° 0 mm 6 m/S 745 mmHg 75%
    21:00 +4°C° 0 mm 6 m/S 745 mmHg 77%
    22:00 +4°C° 0 mm 6 m/S 745 mmHg 78%
    23:00 +4°C° 0 mm 6 m/S 745 mmHg 80%
    Mehr zeigen